Miscellaneous Local Product
Issued by NWS North Platte, NE

Home | Current Version | Previous Version | Graphics & Text | Print | Product List | Glossary On
Versions: 1 2 3 4 5 6 7 8 9 10 11 12 13 14 15 16 17 18 19 20 21 22 23 24 25 26 27 28 29 30 31 32 33 34 35 36 37 38 39 40 41 42 43 44 45 46 47 48 49 50
000
AXUS43 KLBF 310810
MISLBF


WESTERN AND NORTH CENTRAL NEBRASKA HOURLY WEATHER ROUNDUP
NATIONAL WEATHER SERVICE NORTH PLATTE NE
300 AM CDT TUE MAY 31 2016

NOTE: "FAIR" INDICATES FEW OR NO CLOUDS BELOW 12,000 FEET WITH NO
SIGNIFICANT WEATHER AND/OR OBSTRUCTIONS TO VISIBILITY.

NOTE: STATIONS NOT REPORTING VARIABLES SUCH AS SKY/WEATHER OR
PRESSURE ARE PROVIDED BY RAWS AND APRS NETWORKS AND ARE NOT UNDER
NATIONAL WEATHER SERVICE QUALITY CONTROL.

...OBSERVATIONS IN AND NEAR THE EASTERN PANHANDLE OF NEBRASKA...

CITY           SKY/WX    TMP DP  RH WIND       PRES   REMARKS
PINE RIDGE     PTCLDY    47  44  90 CALM      30.05F
CHADRON        CLOUDY    51  46  83 SW9       30.06F
ALLIANCE       LGT RAIN  51  47  86 N8        30.08R
SIDNEY         MOCLDY    51  49  92 N18       30.07F
CRESCENT LAKE    N/A     52  47  84 NW9         N/A
BIG SPRINGS      N/A     59  54  84 W12         N/A
$$

...OBSERVATIONS IN NORTHERN NEBRASKA AND FAR SOUTHERN SOUTH DAKOTA...

CITY           SKY/WX    TMP DP  RH WIND       PRES   REMARKS
WINNER         FAIR      55  49  80 NW16      29.93R
VALENTINE      CLOUDY    52  46  80 W7        29.97R
THEDFORD       CLOUDY    55  48  78 NW10      30.01R
AINSWORTH      CLOUDY    55  48  77 NW13      29.98R
O`NEILL        CLOUDY    60  55  83 NW9       29.93R
ORD            CLOUDY    61  55  81 N10       29.92R
BROKEN BOW     PTCLDY    59  54  83 N16       29.94R
BUTTE            N/A     57  53  88 W13G22      N/A
CHAMBERS         N/A     60  55  84 CALM        N/A
EWING            N/A     61  57  88 NW6         N/A
$$

...OBSERVATIONS IN SOUTHWEST NEBRASKA AND FAR NORTHEAST COLORADO...

CITY           SKY/WX    TMP DP  RH WIND       PRES   REMARKS
WRAY           FAIR      54  52  94 N10       30.01R
HOLYOKE        FAIR      54  50  87 N3        30.06R
IMPERIAL       PTCLDY    57  52  83 N8        30.04R
OGALLALA       CLOUDY    56  47  73 N10       30.03R
NORTH PLATTE   CLOUDY    56  51  84 W3        29.99R
MCCOOK         CLOUDY    56  53  90 NW12      29.98R
LEXINGTON      CLOUDY    57  55  90 W7        29.97R
PAXTON           N/A     60  54  80 NW7         N/A
STAPLETON        N/A     55  50  84 CALM        N/A
GOTHENBURG       N/A     58  53  82 NW3         N/A
CALLAWAY         N/A     58  55  90 N9          N/A
$$

...OBSERVATIONS IN CENTRAL LINCOLN COUNTY AREA...

CITY           SKY/WX    TMP DP  RH WIND       PRES   REMARKS
N.P. AIRPORT   CLOUDY    56  51  84 W3        29.99R
N.P. DOWNTOWN    N/A     58  52  81 CALM        N/A
N.P. SOUTHEAST   N/A     58  51  79 N3          N/A
N.P. HILLCREST   N/A     56  51  85 N9          N/A
$$

...SOME OBSERVATIONS FROM AROUND THE REGION...

CITY           SKY/WX    TMP DP  RH WIND       PRES   REMARKS
DENVER         CLOUDY    50  46  86 N20G29    30.13R
LARAMIE        CLOUDY    43  40  89 E9        30.18S
CHEYENNE       CLOUDY    46  40  79 N14G22    30.15F
SCOTTSBLUFF    LGT RAIN  52  43  71 NW6       30.12S
RAPID CITY     CLOUDY    51  33  50 NW13      30.02F
BISMARCK       CLOUDY    55  52  89 W15G31    29.79F
PIERRE         CLOUDY    54  48  80 W18       29.88R
SIOUX FALLS    LGT RAIN  62  59  90 S3        29.82S
OMAHA          CLOUDY    70  61  73 S12       29.89R
GRAND ISLAND   CLOUDY    61  58  90 W7        29.91R
KANSAS CITY    CLOUDY    60  57  89 S8        29.94F
WICHITA        CLOUDY    65  62  90 SE6       29.92F
OKLAHOMA CITY  MOCLDY    67  65  93 S6        29.90S
DALLAS         CLOUDY    75  66  73 SE5       29.89S
AMARILLO       PTCLDY    65  50  58 S20       29.99S
DODGE CITY     RAIN      57  56  96 NE17      29.95F
HAYS           CLOUDY    61  52  72 E7        29.89S
GOODLAND       CLOUDY    50  48  93 NW6       29.97R
$$




USA.gov is the U.S. government's official web portal to all federal, state and local government web resources and services.